ZVE YSSY-YSSY

Flight info

Callsign ZVE
Flight time 0h 9m
Altitude 1000
Route CAPS HBB DHH REDF ERSK APST
Aircraft H145/L-VGD/A

Departure

Time 2026-05-07 07:21
Airport Sydney Kingsford Smith International Airport (YSSY)

Arrival

Time 2026-05-07 07:30
Airport Sydney Kingsford Smith International Airport (YSSY)
Time Latitude Longitude Altitude Speed Heading
2026-05-07 06:59 -33.94011 151.19157 27 ft 0 kts 298°
2026-05-07 07:10 -33.94008 151.19158 32 ft 4 kts 299°
2026-05-07 07:10 -33.94112 151.19058 148 ft 32 kts 218°
2026-05-07 07:10 -33.94433 151.18926 322 ft 64 kts 184°
2026-05-07 07:11 -33.94941 151.19031 430 ft 81 kts 161°
2026-05-07 07:11 -33.95475 151.19296 472 ft 89 kts 155°
2026-05-07 07:11 -33.96052 151.19623 478 ft 94 kts 154°
2026-05-07 07:11 -33.96652 151.19970 481 ft 97 kts 156°
2026-05-07 07:12 -33.97278 151.20268 482 ft 99 kts 160°
2026-05-07 07:12 -33.97916 151.20577 493 ft 99 kts 155°
2026-05-07 07:12 -33.98482 151.21046 499 ft 100 kts 134°
2026-05-07 07:12 -33.98913 151.21701 502 ft 100 kts 126°
2026-05-07 07:13 -33.99308 151.22392 503 ft 100 kts 123°
2026-05-07 07:13 -33.99679 151.23105 504 ft 101 kts 121°
2026-05-07 07:13 -34.00030 151.23834 505 ft 101 kts 120°
2026-05-07 07:13 -34.00350 151.24583 504 ft 101 kts 110°
2026-05-07 07:14 -34.00254 151.25399 502 ft 102 kts 56°
2026-05-07 07:14 -33.99610 151.25699 510 ft 100 kts 11°
2026-05-07 07:14 -33.98930 151.25882 505 ft 101 kts 13°
2026-05-07 07:14 -33.98258 151.26124 506 ft 101 kts 19°
2026-05-07 07:15 -33.97601 151.26423 505 ft 101 kts 22°
2026-05-07 07:15 -33.96984 151.26802 505 ft 101 kts 27°
2026-05-07 07:15 -33.96328 151.27107 505 ft 101 kts 13°
2026-05-07 07:15 -33.95648 151.27325 505 ft 101 kts 15°
2026-05-07 07:16 -33.94968 151.27542 505 ft 101 kts 14°
2026-05-07 07:16 -33.94286 151.27756 505 ft 101 kts 14°
2026-05-07 07:16 -33.93635 151.27959 545 ft 83 kts 14°
2026-05-07 07:16 -33.93148 151.28085 511 ft 69 kts 12°
2026-05-07 07:17 -33.92665 151.28198 509 ft 71 kts 11°
2026-05-07 07:17 -33.92178 151.28307 507 ft 71 kts 10°
2026-05-07 07:17 -33.91690 151.28409 506 ft 71 kts
2026-05-07 07:17 -33.91200 151.28508 506 ft 71 kts
2026-05-07 07:18 -33.90711 151.28609 505 ft 71 kts 10°
2026-05-07 07:18 -33.90198 151.28721 492 ft 85 kts 11°
2026-05-07 07:18 -33.89535 151.28870 497 ft 107 kts
2026-05-07 07:18 -33.88817 151.28911 508 ft 101 kts 355°
2026-05-07 07:19 -33.88119 151.28751 506 ft 102 kts 350°
2026-05-07 07:19 -33.87414 151.28758 506 ft 101 kts
2026-05-07 07:19 -33.86713 151.28831 505 ft 101 kts
2026-05-07 07:19 -33.86014 151.28916 505 ft 101 kts
2026-05-07 07:20 -33.85551 151.28971 505 ft 101 kts
2026-05-07 07:20 -33.84652 151.29212 508 ft 96 kts 15°
2026-05-07 07:20 -33.83996 151.29429 506 ft 99 kts 16°
2026-05-07 07:20 -33.83560 151.29582 505 ft 99 kts 16°
2026-05-07 07:21 -33.82885 151.29721 581 ft 105 kts 348°
2026-05-07 07:21 -33.82477 151.29072 819 ft 101 kts 278°
2026-05-07 07:21 -33.82497 151.28242 923 ft 99 kts 268°
2026-05-07 07:21 -33.82595 151.27430 967 ft 99 kts 249°
2026-05-07 07:22 -33.83022 151.26790 986 ft 99 kts 219°
2026-05-07 07:22 -33.83579 151.26298 994 ft 100 kts 214°
2026-05-07 07:22 -33.84175 151.25868 999 ft 100 kts 210°
2026-05-07 07:22 -33.84754 151.25404 1002 ft 100 kts 214°
2026-05-07 07:23 -33.85270 151.24861 1002 ft 98 kts 227°
2026-05-07 07:23 -33.85524 151.24128 1032 ft 84 kts 256°
2026-05-07 07:23 -33.85641 151.23559 1007 ft 65 kts 261°
2026-05-07 07:23 -33.85689 151.23000 1006 ft 69 kts 268°
2026-05-07 07:24 -33.85471 151.22566 1001 ft 70 kts 358°
2026-05-07 07:24 -33.85286 151.22998 1007 ft 70 kts 104°
2026-05-07 07:24 -33.85407 151.23558 1007 ft 69 kts 105°
2026-05-07 07:24 -33.85637 151.24041 996 ft 73 kts 165°
2026-05-07 07:25 -33.85707 151.23122 1007 ft 71 kts 296°
2026-05-07 07:25 -33.85524 151.22575 1006 ft 71 kts 284°
2026-05-07 07:25 -33.85449 151.21991 1006 ft 71 kts 275°
2026-05-07 07:26 -33.85429 151.21400 1005 ft 71 kts 270°
2026-05-07 07:26 -33.85443 151.20806 1006 ft 71 kts 269°
2026-05-07 07:26 -33.85488 151.20219 1005 ft 71 kts 256°
2026-05-07 07:26 -33.85777 151.19755 985 ft 83 kts 197°
2026-05-07 07:27 -33.86349 151.19806 1009 ft 81 kts 170°
2026-05-07 07:27 -33.86900 151.19944 1005 ft 81 kts 166°
2026-05-07 07:27 -33.87440 151.20133 1005 ft 81 kts 162°
2026-05-07 07:27 -33.87979 151.20343 1005 ft 81 kts 161°
2026-05-07 07:28 -33.88530 151.20358 1005 ft 81 kts 201°
2026-05-07 07:28 -33.89018 151.20029 1005 ft 81 kts 217°
2026-05-07 07:28 -33.89470 151.19620 1005 ft 81 kts 216°
2026-05-07 07:28 -33.89937 151.19235 1005 ft 81 kts 214°
2026-05-07 07:29 -33.90453 151.18966 1005 ft 81 kts 191°
2026-05-07 07:29 -33.91016 151.18889 1026 ft 82 kts 183°
2026-05-07 07:29 -33.91572 151.18831 923 ft 78 kts 189°
2026-05-07 07:29 -33.92054 151.18726 763 ft 68 kts 191°
2026-05-07 07:30 -33.92524 151.18625 622 ft 69 kts 189°
2026-05-07 07:30 -33.92969 151.18563 486 ft 57 kts 176°
2026-05-07 07:30 -33.93269 151.18695 385 ft 40 kts 149°
2026-05-07 07:30 -33.93488 151.18854 305 ft 31 kts 151°
2026-05-07 07:31 -33.93643 151.18963 240 ft 25 kts 151°
2026-05-07 07:31 -33.93776 151.19048 162 ft 19 kts 152°
2026-05-07 07:31 -33.93875 151.19108 93 ft 11 kts 153°
2026-05-07 07:31 -33.93935 151.19141 43 ft 8 kts 156°
2026-05-07 07:32 -33.93976 151.19143 35 ft 6 kts 195°
2026-05-07 07:32 -33.94007 151.19153 28 ft 3 kts 128°
2026-05-07 07:32 -33.94012 151.19161 27 ft 0 kts 129°
2026-05-07 07:45 -33.93925 151.19123 89 ft 39 kts 341°
2026-05-07 07:45 -33.93853 151.18665 293 ft 73 kts 275°
2026-05-07 07:45 -33.93775 151.17991 477 ft 89 kts 277°
2026-05-07 07:45 -33.93683 151.17336 745 ft 70 kts 282°
2026-05-07 07:46 -33.93559 151.16771 891 ft 71 kts 288°
2026-05-07 07:46 -33.93367 151.16223 954 ft 71 kts 298°
2026-05-07 07:46 -33.93030 151.15796 982 ft 71 kts 330°
2026-05-07 07:46 -33.92575 151.15567 992 ft 71 kts 340°
2026-05-07 07:47 -33.92235 151.15152 999 ft 72 kts 296°
2026-05-07 07:47 -33.92152 151.14569 1001 ft 71 kts 276°
2026-05-07 07:47 -33.91932 151.14038 992 ft 78 kts 304°
2026-05-07 07:47 -33.91577 151.13389 989 ft 105 kts 302°
2026-05-07 07:48 -33.91210 151.12635 1009 ft 102 kts 298°
2026-05-07 07:48 -33.90880 151.11875 1005 ft 103 kts 299°
2026-05-07 07:48 -33.90464 151.11178 1006 ft 102 kts 306°
2026-05-07 07:48 -33.90033 151.10496 1006 ft 102 kts 308°
2026-05-07 07:49 -33.89639 151.09788 1006 ft 102 kts 298°
2026-05-07 07:49 -33.89240 151.09087 1006 ft 101 kts 304°
2026-05-07 07:49 -33.88826 151.08398 1005 ft 101 kts 307°
2026-05-07 07:49 -33.88412 151.07710 1005 ft 101 kts 304°
2026-05-07 07:50 -33.88024 151.07004 1005 ft 101 kts 303°
2026-05-07 07:50 -33.87623 151.06309 1005 ft 101 kts 310°
2026-05-07 07:50 -33.87109 151.05734 1005 ft 101 kts 321°
2026-05-07 07:50 -33.86524 151.05266 1005 ft 101 kts 329°
2026-05-07 07:51 -33.85922 151.04830 1005 ft 101 kts 329°
2026-05-07 07:51 -33.85311 151.04412 1005 ft 101 kts 332°
2026-05-07 07:51 -33.84689 151.04022 1005 ft 101 kts 333°
2026-05-07 07:51 -33.84061 151.03643 1005 ft 101 kts 334°
2026-05-07 07:52 -33.83426 151.03280 1005 ft 101 kts 335°
2026-05-07 07:52 -33.82767 151.03013 1001 ft 102 kts
2026-05-07 07:52 -33.82178 151.03412 870 ft 98 kts 47°
2026-05-07 07:52 -33.81875 151.04127 771 ft 98 kts 84°
2026-05-07 07:53 -33.82203 151.04815 743 ft 98 kts 135°
2026-05-07 07:53 -33.82452 151.05563 724 ft 99 kts 95°
2026-05-07 07:53 -33.82450 151.06383 663 ft 98 kts 73°
2026-05-07 07:53 -33.82125 151.07107 573 ft 99 kts 60°
2026-05-07 07:54 -33.82110 151.07918 540 ft 99 kts 103°
2026-05-07 07:54 -33.82238 151.08733 522 ft 100 kts 99°
2026-05-07 07:54 -33.82482 151.09498 509 ft 101 kts 137°
2026-05-07 07:54 -33.83091 151.09897 510 ft 99 kts 148°
2026-05-07 07:55 -33.83541 151.10503 508 ft 97 kts 119°
2026-05-07 07:55 -33.83845 151.11238 506 ft 99 kts 114°
2026-05-07 07:55 -33.84112 151.11999 506 ft 99 kts 111°
2026-05-07 07:55 -33.84334 151.12782 506 ft 99 kts 107°
2026-05-07 07:56 -33.84649 151.13519 503 ft 100 kts 102°
2026-05-07 07:56 -33.84451 151.14304 512 ft 97 kts 66°
2026-05-07 07:56 -33.84203 151.15059 503 ft 99 kts 75°
2026-05-07 07:56 -33.84530 151.15743 512 ft 98 kts 139°
2026-05-07 07:57 -33.84669 151.16506 512 ft 99 kts 82°
2026-05-07 07:57 -33.84536 151.17296 505 ft 98 kts 81°
2026-05-07 07:57 -33.84552 151.18118 506 ft 98 kts 94°
2026-05-07 07:57 -33.84760 151.18906 507 ft 99 kts 118°
2026-05-07 07:58 -33.85053 151.19642 505 ft 99 kts 112°
2026-05-07 07:58 -33.85297 151.20421 505 ft 99 kts 111°
2026-05-07 07:58 -33.85534 151.21202 509 ft 98 kts 105°
2026-05-07 07:58 -33.85635 151.22011 514 ft 99 kts 97°
2026-05-07 07:59 -33.85721 151.22791 729 ft 82 kts 89°
2026-05-07 07:59 -33.85361 151.23035 876 ft 69 kts 327°
2026-05-07 07:59 -33.85213 151.22500 952 ft 68 kts 277°
2026-05-07 07:59 -33.85361 151.22010 975 ft 71 kts 197°
2026-05-07 08:00 -33.85633 151.22357 989 ft 70 kts 72°
2026-05-07 08:00 -33.85239 151.22424 997 ft 71 kts 307°
2026-05-07 08:00 -33.85421 151.21994 1001 ft 71 kts 181°
2026-05-07 08:00 -33.85658 151.22431 1006 ft 72 kts 90°
2026-05-07 08:01 -33.85646 151.23042 994 ft 79 kts 87°
2026-05-07 08:01 -33.85612 151.23809 989 ft 104 kts 86°
2026-05-07 08:01 -33.85491 151.24670 1008 ft 103 kts 65°
2026-05-07 08:01 -33.84985 151.25271 1007 ft 102 kts 39°
2026-05-07 08:02 -33.84432 151.25790 1006 ft 102 kts 36°
2026-05-07 08:02 -33.83849 151.26275 1006 ft 102 kts 33°
2026-05-07 08:02 -33.83245 151.26719 1006 ft 102 kts 30°
2026-05-07 08:02 -33.82747 151.27308 997 ft 101 kts 62°
2026-05-07 08:03 -33.82605 151.28120 853 ft 104 kts 102°
2026-05-07 08:03 -33.83135 151.28481 723 ft 95 kts 191°
2026-05-07 08:03 -33.83799 151.28549 599 ft 98 kts 162°
2026-05-07 08:03 -33.84231 151.28712 559 ft 98 kts 166°
2026-05-07 08:04 -33.84895 151.28873 529 ft 98 kts 175°
2026-05-07 08:04 -33.85800 151.28736 514 ft 99 kts 191°
2026-05-07 08:04 -33.86479 151.28601 510 ft 99 kts 184°
2026-05-07 08:04 -33.86935 151.28603 509 ft 99 kts 179°
2026-05-07 08:05 -33.87627 151.28628 507 ft 99 kts 175°
2026-05-07 08:05 -33.88314 151.28733 506 ft 100 kts 172°
2026-05-07 08:05 -33.89007 151.28786 505 ft 100 kts 179°
2026-05-07 08:05 -33.89695 151.28701 506 ft 100 kts 188°
2026-05-07 08:06 -33.90382 151.28563 505 ft 100 kts 190°
2026-05-07 08:06 -33.91067 151.28425 505 ft 100 kts 189°
2026-05-07 08:06 -33.91754 151.28282 505 ft 100 kts 190°
2026-05-07 08:06 -33.92439 151.28129 505 ft 100 kts 191°
2026-05-07 08:07 -33.93122 151.27968 505 ft 100 kts 191°
2026-05-07 08:07 -33.93806 151.27802 505 ft 100 kts 191°
2026-05-07 08:07 -33.94486 151.27620 505 ft 100 kts 194°
2026-05-07 08:07 -33.95140 151.27398 504 ft 97 kts 198°
2026-05-07 08:08 -33.95787 151.27132 506 ft 99 kts 199°
2026-05-07 08:08 -33.96436 151.26872 505 ft 99 kts 197°
2026-05-07 08:08 -33.97102 151.26645 505 ft 99 kts 195°
2026-05-07 08:08 -33.97769 151.26430 505 ft 99 kts 194°
2026-05-07 08:09 -33.98420 151.26168 507 ft 97 kts 202°
2026-05-07 08:09 -33.99043 151.25844 506 ft 98 kts 205°
2026-05-07 08:09 -33.99651 151.25482 505 ft 98 kts 206°
2026-05-07 08:09 -34.00203 151.25009 502 ft 99 kts 233°
2026-05-07 08:10 -34.00187 151.24236 511 ft 98 kts 301°
2026-05-07 08:10 -33.99823 151.23551 504 ft 98 kts 303°
2026-05-07 08:10 -33.99450 151.22859 506 ft 99 kts 303°
2026-05-07 08:10 -33.99064 151.22172 505 ft 99 kts 304°
2026-05-07 08:11 -33.98713 151.21569 527 ft 72 kts 309°
2026-05-07 08:11 -33.98402 151.21115 517 ft 66 kts 316°
2026-05-07 08:11 -33.98036 151.20806 509 ft 64 kts 332°
2026-05-07 08:11 -33.97648 151.20555 510 ft 61 kts 332°
2026-05-07 08:12 -33.97332 151.20366 509 ft 41 kts 334°
2026-05-07 08:12 -33.97117 151.20246 503 ft 29 kts 337°
2026-05-07 08:12 -33.96944 151.20165 501 ft 23 kts 337°
2026-05-07 08:12 -33.96834 151.20119 496 ft 11 kts 338°
2026-05-07 08:13 -33.96767 151.20086 500 ft 6 kts 339°
2026-05-07 08:13 -33.96747 151.20081 502 ft 3 kts 339°
2026-05-07 08:13 -33.96736 151.20079 503 ft 1 kts 339°
2026-05-07 08:13 -33.96740 151.20081 504 ft 2 kts 339°
2026-05-07 08:14 -33.96734 151.20077 504 ft 1 kts 339°
2026-05-07 08:14 -33.96727 151.20077 505 ft 4 kts 339°
2026-05-07 08:14 -33.96720 151.20073 505 ft 2 kts 339°
2026-05-07 08:14 -33.96686 151.20075 506 ft 6 kts 339°
2026-05-07 08:15 -33.96685 151.20071 505 ft 0 kts 339°
2026-05-07 08:15 -33.96680 151.20070 505 ft 1 kts 339°
2026-05-07 08:15 -33.96671 151.20051 507 ft 5 kts 340°
2026-05-07 08:15 -33.96667 151.20026 506 ft 3 kts 341°
2026-05-07 08:16 -33.96680 151.20033 505 ft 7 kts 341°
2026-05-07 08:16 -33.96591 151.19993 509 ft 13 kts 341°
2026-05-07 08:16 -33.96546 151.19992 503 ft 5 kts 342°
2026-05-07 08:16 -33.96564 151.20066 510 ft 4 kts 344°
2026-05-07 08:17 -33.96538 151.19994 505 ft 11 kts 343°
2026-05-07 08:17 -33.96414 151.19888 511 ft 40 kts 338°
2026-05-07 08:17 -33.96059 151.19702 505 ft 68 kts 335°
2026-05-07 08:17 -33.95628 151.19438 482 ft 70 kts 331°
2026-05-07 08:18 -33.95182 151.19280 467 ft 64 kts
2026-05-07 08:18 -33.94797 151.19332 424 ft 51 kts
2026-05-07 08:18 -33.94444 151.19381 345 ft 49 kts
2026-05-07 08:18 -33.94103 151.19383 254 ft 43 kts 354°
2026-05-07 08:19 -33.93949 151.19255 90 ft 16 kts 288°
2026-05-07 08:19 -33.93955 151.19184 32 ft 5 kts 239°
2026-05-07 08:19 -33.93979 151.19144 30 ft 3 kts 196°
2026-05-07 08:19 -33.94004 151.19151 27 ft 2 kts 138°
2026-05-07 08:20 -33.94012 151.19162 27 ft 0 kts 128°